contact:dominique.lefevre@mio.osupytheas.fr, maurice.libes@osupytheas.fr, didier.mallarino@osupytheas.fr
Project:EMSO http://www.emso-fr.org/EMSO-France
Depth: 2436.0 m
Title:EMSO Ligure Ouest : Data MII capteur MICROCAT
DateTime_Computer,Latitude,Longitude,Temperature,Conductivity,Pressure,DateTime_Instrument
DateTime_Computer,Latitude,Longitude,degC,S m-1,dbar,DateTime_Instrument
2021-10-05T00:00:15Z,42.805,6.029,13.2991,4.60005,2470.38,2021-10-05T02:01:37Z
2021-10-05T00:03:18Z,42.805,6.029,13.2990,4.60005,2470.39,2021-10-05T02:04:41Z
2021-10-05T00:06:21Z,42.805,6.029,13.2993,4.60007,2470.343,2021-10-05T02:07:44Z
2021-10-05T00:09:24Z,42.805,6.029,13.2989,4.60006,2470.38,2021-10-05T02:10:47Z
2021-10-05T00:12:27Z,42.805,6.029,13.2990,4.60006,2470.343,2021-10-05T02:13:50Z
2021-10-05T00:15:30Z,42.805,6.029,13.2993,4.60005,2470.39,2021-10-05T02:16:53Z
2021-10-05T00:18:34Z,42.805,6.029,13.2990,4.60005,2470.38,2021-10-05T02:19:56Z
2021-10-05T00:21:37Z,42.805,6.029,13.2991,4.60005,2470.366,2021-10-05T02:22:59Z
2021-10-05T00:24:40Z,42.805,6.029,13.2990,4.60005,2470.343,2021-10-05T02:26:02Z
2021-10-05T00:27:43Z,42.805,6.029,13.2990,4.60004,2470.357,2021-10-05T02:29:05Z
2021-10-05T00:30:46Z,42.805,6.029,13.2991,4.60007,2470.357,2021-10-05T02:32:09Z
2021-10-05T00:33:49Z,42.805,6.029,13.2991,4.60005,2470.334,2021-10-05T02:35:12Z
2021-10-05T00:36:52Z,42.805,6.029,13.2990,4.60006,2470.38,2021-10-05T02:38:15Z
2021-10-05T00:39:55Z,42.805,6.029,13.2990,4.60006,2470.334,2021-10-05T02:41:18Z
2021-10-05T00:42:58Z,42.805,6.029,13.2992,4.60006,2470.334,2021-10-05T02:44:21Z
2021-10-05T00:46:02Z,42.805,6.029,13.2989,4.60004,2470.343,2021-10-05T02:47:24Z
2021-10-05T00:49:05Z,42.805,6.029,13.2989,4.60005,2470.343,2021-10-05T02:50:27Z
2021-10-05T00:52:08Z,42.805,6.029,13.2991,4.60005,2470.31,2021-10-05T02:53:30Z
2021-10-05T00:55:11Z,42.805,6.029,13.2992,4.60006,2470.297,2021-10-05T02:56:34Z
2021-10-05T00:58:14Z,42.805,6.029,13.2986,4.60004,2470.357,2021-10-05T02:59:37Z
2021-10-05T01:01:17Z,42.805,6.029,13.2993,4.60006,2470.357,2021-10-05T03:02:40Z
2021-10-05T01:04:20Z,42.805,6.029,13.2991,4.60006,2470.343,2021-10-05T03:05:43Z
2021-10-05T01:07:23Z,42.805,6.029,13.2991,4.60006,2470.31,2021-10-05T03:08:46Z
2021-10-05T01:10:26Z,42.805,6.029,13.2994,4.60006,2470.357,2021-10-05T03:11:49Z
2021-10-05T01:13:30Z,42.805,6.029,13.2990,4.60006,2470.32,2021-10-05T03:14:52Z
2021-10-05T01:16:33Z,42.805,6.029,13.2990,4.60006,2470.32,2021-10-05T03:17:55Z
2021-10-05T01:19:36Z,42.805,6.029,13.2991,4.60006,2470.32,2021-10-05T03:20:58Z
2021-10-05T01:22:39Z,42.805,6.029,13.2997,4.60006,2470.357,2021-10-05T03:24:02Z
2021-10-05T01:25:42Z,42.805,6.029,13.2991,4.60007,2470.343,2021-10-05T03:27:05Z
2021-10-05T01:28:45Z,42.805,6.029,13.2991,4.60005,2470.343,2021-10-05T03:30:08Z
2021-10-05T01:31:48Z,42.805,6.029,13.2993,4.60005,2470.334,2021-10-05T03:33:11Z
2021-10-05T01:34:51Z,42.805,6.029,13.2991,4.60005,2470.357,2021-10-05T03:36:14Z
2021-10-05T01:37:55Z,42.805,6.029,13.2991,4.60006,2470.32,2021-10-05T03:39:17Z
2021-10-05T01:40:58Z,42.805,6.029,13.2991,4.60005,2470.343,2021-10-05T03:42:20Z
2021-10-05T01:44:01Z,42.805,6.029,13.2991,4.60006,2470.334,2021-10-05T03:45:23Z
2021-10-05T01:47:04Z,42.805,6.029,13.2994,4.60006,2470.343,2021-10-05T03:48:27Z
2021-10-05T01:50:07Z,42.805,6.029,13.2991,4.60008,2470.357,2021-10-05T03:51:30Z
2021-10-05T01:53:10Z,42.805,6.029,13.2991,4.60006,2470.343,2021-10-05T03:54:33Z
2021-10-05T01:56:13Z,42.805,6.029,13.2991,4.60005,2470.343,2021-10-05T03:57:36Z
2021-10-05T01:59:16Z,42.805,6.029,13.2989,4.60006,2470.343,2021-10-05T04:00:39Z
2021-10-05T02:02:20Z,42.805,6.029,13.2991,4.60006,2470.343,2021-10-05T04:03:42Z
2021-10-05T02:05:23Z,42.805,6.029,13.2998,4.60006,2470.357,2021-10-05T04:06:45Z
2021-10-05T02:08:26Z,42.805,6.029,13.2994,4.60006,2470.357,2021-10-05T04:09:48Z
2021-10-05T02:11:29Z,42.805,6.029,13.2990,4.60006,2470.366,2021-10-05T04:12:52Z
2021-10-05T02:14:32Z,42.805,6.029,13.2991,4.60007,2470.366,2021-10-05T04:15:55Z
2021-10-05T02:17:35Z,42.805,6.029,13.2990,4.60006,2470.357,2021-10-05T04:18:58Z
2021-10-05T02:20:38Z,42.805,6.029,13.2993,4.60007,2470.366,2021-10-05T04:22:01Z
2021-10-05T02:23:41Z,42.805,6.029,13.2993,4.60006,2470.38,2021-10-05T04:25:04Z
2021-10-05T02:26:44Z,42.805,6.029,13.2991,4.60006,2470.366,2021-10-05T04:28:07Z
2021-10-05T02:29:48Z,42.805,6.029,13.2990,4.60006,2470.343,2021-10-05T04:31:10Z
2021-10-05T02:32:51Z,42.805,6.029,13.2991,4.60006,2470.343,2021-10-05T04:34:13Z
2021-10-05T02:35:54Z,42.805,6.029,13.2992,4.60006,2470.334,2021-10-05T04:37:16Z
2021-10-05T02:38:57Z,42.805,6.029,13.2991,4.60006,2470.404,2021-10-05T04:40:20Z
2021-10-05T02:42:00Z,42.805,6.029,13.2995,4.60006,2470.38,2021-10-05T04:43:23Z
2021-10-05T02:45:03Z,42.805,6.029,13.2992,4.60006,2470.366,2021-10-05T04:46:26Z
2021-10-05T02:48:06Z,42.805,6.029,13.2992,4.60006,2470.38,2021-10-05T04:49:29Z
2021-10-05T02:51:09Z,42.805,6.029,13.2993,4.60006,2470.38,2021-10-05T04:52:32Z
2021-10-05T02:54:13Z,42.805,6.029,13.2989,4.60006,2470.404,2021-10-05T04:55:35Z
2021-10-05T02:57:16Z,42.805,6.029,13.2993,4.60006,2470.404,2021-10-05T04:58:38Z
2021-10-05T03:00:19Z,42.805,6.029,13.2996,4.60006,2470.404,2021-10-05T05:01:41Z
2021-10-05T03:03:22Z,42.805,6.029,13.2991,4.60006,2470.404,2021-10-05T05:04:45Z
2021-10-05T03:06:25Z,42.805,6.029,13.2991,4.60005,2470.404,2021-10-05T05:07:48Z
2021-10-05T03:09:28Z,42.805,6.029,13.2992,4.60007,2470.38,2021-10-05T05:10:51Z
2021-10-05T03:12:31Z,42.805,6.029,13.2993,4.60006,2470.39,2021-10-05T05:13:54Z
2021-10-05T03:15:34Z,42.805,6.029,13.2990,4.60006,2470.404,2021-10-05T05:16:57Z
2021-10-05T03:18:37Z,42.805,6.029,13.2990,4.60006,2470.404,2021-10-05T05:20:00Z
2021-10-05T03:21:41Z,42.805,6.029,13.2993,4.60006,2470.413,2021-10-05T05:23:03Z
2021-10-05T03:24:44Z,42.805,6.029,13.2991,4.60007,2470.39,2021-10-05T05:26:06Z
2021-10-05T03:27:47Z,42.805,6.029,13.2993,4.60006,2470.413,2021-10-05T05:29:09Z
2021-10-05T03:30:50Z,42.805,6.029,13.2991,4.60006,2470.404,2021-10-05T05:32:13Z
2021-10-05T03:33:53Z,42.805,6.029,13.2991,4.60009,2470.413,2021-10-05T05:35:16Z
2021-10-05T03:36:56Z,42.805,6.029,13.2992,4.60008,2470.413,2021-10-05T05:38:19Z
2021-10-05T03:39:59Z,42.805,6.029,13.2991,4.60007,2470.427,2021-10-05T05:41:22Z
2021-10-05T03:43:02Z,42.805,6.029,13.2991,4.60006,2470.45,2021-10-05T05:44:25Z
2021-10-05T03:46:06Z,42.805,6.029,13.2993,4.60006,2470.45,2021-10-05T05:47:28Z
2021-10-05T03:49:09Z,42.805,6.029,13.2991,4.60006,2470.45,2021-10-05T05:50:31Z
2021-10-05T03:52:12Z,42.805,6.029,13.2990,4.60009,2470.413,2021-10-05T05:53:34Z
2021-10-05T03:55:15Z,42.805,6.029,13.2991,4.60006,2470.413,2021-10-05T05:56:37Z
2021-10-05T03:58:18Z,42.805,6.029,13.2992,4.60007,2470.45,2021-10-05T05:59:41Z
2021-10-05T04:01:21Z,42.805,6.029,13.2990,4.60006,2470.437,2021-10-05T06:02:44Z
2021-10-05T04:04:24Z,42.805,6.029,13.2992,4.60007,2470.413,2021-10-05T06:05:47Z
2021-10-05T04:07:27Z,42.805,6.029,13.2993,4.60007,2470.474,2021-10-05T06:08:50Z
2021-10-05T04:10:30Z,42.805,6.029,13.2991,4.60006,2470.437,2021-10-05T06:11:53Z
2021-10-05T04:13:34Z,42.805,6.029,13.2991,4.60006,2470.474,2021-10-05T06:14:56Z
2021-10-05T04:16:37Z,42.805,6.029,13.2993,4.60007,2470.427,2021-10-05T06:17:59Z
2021-10-05T04:19:40Z,42.805,6.029,13.2990,4.60006,2470.45,2021-10-05T06:21:02Z
2021-10-05T04:22:43Z,42.805,6.029,13.2996,4.60007,2470.45,2021-10-05T06:24:06Z
2021-10-05T04:25:46Z,42.805,6.029,13.2993,4.60007,2470.497,2021-10-05T06:27:09Z
2021-10-05T04:28:49Z,42.805,6.029,13.2993,4.60008,2470.474,2021-10-05T06:30:12Z
2021-10-05T04:31:52Z,42.805,6.029,13.2993,4.60007,2470.45,2021-10-05T06:33:15Z
2021-10-05T04:34:55Z,42.805,6.029,13.2987,4.60008,2470.46,2021-10-05T06:36:18Z
2021-10-05T04:37:59Z,42.805,6.029,13.2994,4.60006,2470.45,2021-10-05T06:39:21Z
2021-10-05T04:41:02Z,42.805,6.029,13.2993,4.60008,2470.46,2021-10-05T06:42:24Z
2021-10-05T04:44:05Z,42.805,6.029,13.2992,4.60009,2470.46,2021-10-05T06:45:27Z
2021-10-05T04:47:08Z,42.805,6.029,13.2993,4.60007,2470.483,2021-10-05T06:48:31Z
2021-10-05T04:50:11Z,42.805,6.029,13.2991,4.60008,2470.483,2021-10-05T06:51:34Z
2021-10-05T04:53:14Z,42.805,6.029,13.2989,4.60008,2470.474,2021-10-05T06:54:37Z
2021-10-05T04:56:17Z,42.805,6.029,13.2990,4.60006,2470.46,2021-10-05T06:57:40Z
2021-10-05T04:59:20Z,42.805,6.029,13.2993,4.60007,2470.483,2021-10-05T07:00:43Z
2021-10-05T05:02:23Z,42.805,6.029,13.2993,4.60006,2470.474,2021-10-05T07:03:46Z
2021-10-05T05:05:27Z,42.805,6.029,13.2991,4.60008,2470.507,2021-10-05T07:06:49Z
2021-10-05T05:08:30Z,42.805,6.029,13.2995,4.60007,2470.474,2021-10-05T07:09:52Z
2021-10-05T05:11:33Z,42.805,6.029,13.2991,4.60007,2470.474,2021-10-05T07:12:55Z
2021-10-05T05:14:36Z,42.805,6.029,13.2990,4.60006,2470.483,2021-10-05T07:15:59Z
2021-10-05T05:17:39Z,42.805,6.029,13.2994,4.60007,2470.46,2021-10-05T07:19:02Z
2021-10-05T05:20:42Z,42.805,6.029,13.2986,4.60006,2470.46,2021-10-05T07:22:05Z
2021-10-05T05:23:45Z,42.805,6.029,13.2990,4.60008,2470.52,2021-10-05T07:25:08Z
2021-10-05T05:26:48Z,42.805,6.029,13.2991,4.60007,2470.483,2021-10-05T07:28:11Z
2021-10-05T05:29:52Z,42.805,6.029,13.2991,4.60007,2470.497,2021-10-05T07:31:14Z
2021-10-05T05:32:55Z,42.805,6.029,13.2991,4.60007,2470.483,2021-10-05T07:34:17Z
2021-10-05T05:35:58Z,42.805,6.029,13.2993,4.60007,2470.497,2021-10-05T07:37:20Z
2021-10-05T05:39:01Z,42.805,6.029,13.2996,4.60007,2470.52,2021-10-05T07:40:24Z
2021-10-05T05:42:04Z,42.805,6.029,13.2995,4.60007,2470.52,2021-10-05T07:43:27Z
2021-10-05T05:45:07Z,42.805,6.029,13.2993,4.60006,2470.53,2021-10-05T07:46:30Z
2021-10-05T05:48:10Z,42.805,6.029,13.2989,4.60007,2470.497,2021-10-05T07:49:33Z
2021-10-05T05:51:13Z,42.805,6.029,13.2991,4.60006,2470.46,2021-10-05T07:52:36Z
2021-10-05T05:54:16Z,42.805,6.029,13.2993,4.60007,2470.497,2021-10-05T07:55:39Z
2021-10-05T05:57:20Z,42.805,6.029,13.2992,4.60007,2470.483,2021-10-05T07:58:42Z
2021-10-05T06:00:23Z,42.805,6.029,13.2991,4.60007,2470.507,2021-10-05T08:01:45Z
2021-10-05T06:03:26Z,42.805,6.029,13.2993,4.60006,2470.497,2021-10-05T08:04:48Z
2021-10-05T06:06:29Z,42.805,6.029,13.2991,4.60007,2470.483,2021-10-05T08:07:52Z
2021-10-05T06:09:32Z,42.805,6.029,13.2990,4.60007,2470.497,2021-10-05T08:10:55Z
2021-10-05T06:12:35Z,42.805,6.029,13.2990,4.60009,2470.507,2021-10-05T08:13:58Z
2021-10-05T06:15:38Z,42.805,6.029,13.2989,4.60006,2470.52,2021-10-05T08:17:01Z
2021-10-05T06:18:41Z,42.805,6.029,13.2994,4.60007,2470.483,2021-10-05T08:20:04Z
2021-10-05T06:21:45Z,42.805,6.029,13.2991,4.60007,2470.46,2021-10-05T08:23:07Z
2021-10-05T06:24:48Z,42.805,6.029,13.2990,4.60007,2470.497,2021-10-05T08:26:10Z
2021-10-05T06:27:51Z,42.805,6.029,13.2990,4.60007,2470.497,2021-10-05T08:29:13Z
2021-10-05T06:30:54Z,42.805,6.029,13.2993,4.60007,2470.497,2021-10-05T08:32:17Z
2021-10-05T06:33:57Z,42.805,6.029,13.2991,4.60007,2470.483,2021-10-05T08:35:20Z
2021-10-05T06:37:00Z,42.805,6.029,13.2993,4.60006,2470.497,2021-10-05T08:38:23Z
2021-10-05T06:40:03Z,42.805,6.029,13.2995,4.60007,2470.483,2021-10-05T08:41:26Z
2021-10-05T06:43:06Z,42.805,6.029,13.2996,4.60008,2470.507,2021-10-05T08:44:29Z
2021-10-05T06:46:09Z,42.805,6.029,13.2990,4.60008,2470.507,2021-10-05T08:47:32Z
2021-10-05T06:49:13Z,42.805,6.029,13.2991,4.60007,2470.483,2021-10-05T08:50:35Z
2021-10-05T06:52:16Z,42.805,6.029,13.2996,4.60006,2470.483,2021-10-05T08:53:38Z
2021-10-05T06:55:19Z,42.805,6.029,13.2993,4.60008,2470.497,2021-10-05T08:56:41Z
2021-10-05T06:58:22Z,42.805,6.029,13.2991,4.60006,2470.483,2021-10-05T08:59:45Z
2021-10-05T07:01:25Z,42.805,6.029,13.2993,4.60007,2470.483,2021-10-05T09:02:48Z
2021-10-05T07:04:28Z,42.805,6.029,13.2991,4.60008,2470.507,2021-10-05T09:05:51Z
2021-10-05T07:07:31Z,42.805,6.029,13.2993,4.60006,2470.497,2021-10-05T09:08:54Z
2021-10-05T07:10:34Z,42.805,6.029,13.2993,4.60007,2470.497,2021-10-05T09:11:57Z
2021-10-05T07:13:38Z,42.805,6.029,13.2990,4.60007,2470.483,2021-10-05T09:15:00Z
2021-10-05T07:16:41Z,42.805,6.029,13.2990,4.60006,2470.483,2021-10-05T09:18:03Z
2021-10-05T07:19:44Z,42.805,6.029,13.2997,4.60007,2470.46,2021-10-05T09:21:06Z
2021-10-05T07:22:47Z,42.805,6.029,13.2993,4.60006,2470.46,2021-10-05T09:24:10Z
2021-10-05T07:25:50Z,42.805,6.029,13.2992,4.60007,2470.474,2021-10-05T09:27:13Z
2021-10-05T07:28:53Z,42.805,6.029,13.2994,4.60007,2470.507,2021-10-05T09:30:16Z
2021-10-05T07:31:56Z,42.805,6.029,13.2991,4.60006,2470.483,2021-10-05T09:33:19Z
2021-10-05T07:34:59Z,42.805,6.029,13.2990,4.60006,2470.483,2021-10-05T09:36:22Z
2021-10-05T07:38:02Z,42.805,6.029,13.2994,4.60006,2470.46,2021-10-05T09:39:25Z
2021-10-05T07:41:06Z,42.805,6.029,13.2991,4.60008,2470.46,2021-10-05T09:42:28Z
2021-10-05T07:44:09Z,42.805,6.029,13.2992,4.60007,2470.483,2021-10-05T09:45:31Z
2021-10-05T07:47:12Z,42.805,6.029,13.2992,4.60009,2470.474,2021-10-05T09:48:34Z
2021-10-05T07:50:15Z,42.805,6.029,13.2993,4.60006,2470.483,2021-10-05T09:51:38Z
2021-10-05T07:53:18Z,42.805,6.029,13.2990,4.60008,2470.52,2021-10-05T09:54:41Z
2021-10-05T07:56:21Z,42.805,6.029,13.2991,4.60007,2470.46,2021-10-05T09:57:44Z
2021-10-05T07:59:24Z,42.805,6.029,13.2994,4.60006,2470.474,2021-10-05T10:00:47Z
2021-10-05T08:02:27Z,42.805,6.029,13.2993,4.60006,2470.497,2021-10-05T10:03:50Z
2021-10-05T08:05:31Z,42.805,6.029,13.2991,4.60006,2470.474,2021-10-05T10:06:53Z
2021-10-05T08:08:34Z,42.805,6.029,13.2989,4.60006,2470.497,2021-10-05T10:09:56Z
2021-10-05T08:11:37Z,42.805,6.029,13.2990,4.60006,2470.46,2021-10-05T10:12:59Z
2021-10-05T08:14:40Z,42.805,6.029,13.2993,4.60007,2470.45,2021-10-05T10:16:03Z
2021-10-05T08:17:43Z,42.805,6.029,13.2993,4.60007,2470.46,2021-10-05T10:19:06Z
2021-10-05T08:20:46Z,42.805,6.029,13.2993,4.60006,2470.46,2021-10-05T10:22:09Z
2021-10-05T08:23:49Z,42.805,6.029,13.2993,4.60006,2470.483,2021-10-05T10:25:12Z
2021-10-05T08:26:52Z,42.805,6.029,13.2995,4.60007,2470.46,2021-10-05T10:28:15Z
2021-10-05T08:29:56Z,42.805,6.029,13.2990,4.60006,2470.45,2021-10-05T10:31:18Z
2021-10-05T08:32:59Z,42.805,6.029,13.2992,4.60007,2470.46,2021-10-05T10:34:21Z
2021-10-05T08:36:02Z,42.805,6.029,13.2991,4.60007,2470.437,2021-10-05T10:37:24Z
2021-10-05T08:39:05Z,42.805,6.029,13.2993,4.60007,2470.45,2021-10-05T10:40:28Z
2021-10-05T08:42:08Z,42.805,6.029,13.2986,4.60007,2470.427,2021-10-05T10:43:31Z
2021-10-05T08:45:11Z,42.805,6.029,13.2993,4.60008,2470.45,2021-10-05T10:46:34Z
2021-10-05T08:48:14Z,42.805,6.029,13.2993,4.60006,2470.45,2021-10-05T10:49:37Z
2021-10-05T08:51:17Z,42.805,6.029,13.2993,4.60008,2470.446,2021-10-05T10:52:40Z
2021-10-05T08:54:21Z,42.805,6.029,13.2992,4.60007,2470.46,2021-10-05T10:55:43Z
2021-10-05T08:57:24Z,42.805,6.029,13.2993,4.60007,2470.413,2021-10-05T10:58:46Z
2021-10-05T09:00:27Z,42.805,6.029,13.2993,4.60008,2470.45,2021-10-05T11:01:49Z
2021-10-05T09:03:30Z,42.805,6.029,13.2991,4.60008,2470.45,2021-10-05T11:04:53Z
2021-10-05T09:06:33Z,42.805,6.029,13.2996,4.60008,2470.427,2021-10-05T11:07:56Z
2021-10-05T09:09:36Z,42.805,6.029,13.2993,4.60007,2470.474,2021-10-05T11:10:59Z
2021-10-05T09:12:39Z,42.805,6.029,13.2993,4.60008,2470.427,2021-10-05T11:14:02Z
2021-10-05T09:15:42Z,42.805,6.029,13.2993,4.60008,2470.427,2021-10-05T11:17:05Z
2021-10-05T09:18:45Z,42.805,6.029,13.2992,4.60007,2470.437,2021-10-05T11:20:08Z
2021-10-05T09:21:49Z,42.805,6.029,13.2994,4.60007,2470.437,2021-10-05T11:23:11Z
2021-10-05T09:24:52Z,42.805,6.029,13.2993,4.60008,2470.399,2021-10-05T11:26:14Z
2021-10-05T09:27:55Z,42.805,6.029,13.2991,4.60007,2470.413,2021-10-05T11:29:18Z
2021-10-05T09:30:58Z,42.805,6.029,13.2993,4.60009,2470.413,2021-10-05T11:32:21Z
2021-10-05T09:34:01Z,42.805,6.029,13.2995,4.60009,2470.39,2021-10-05T11:35:24Z
2021-10-05T09:37:04Z,42.805,6.029,13.2993,4.60007,2470.404,2021-10-05T11:38:27Z
2021-10-05T09:40:07Z,42.805,6.029,13.2993,4.60006,2470.38,2021-10-05T11:41:30Z
2021-10-05T09:43:10Z,42.805,6.029,13.2993,4.60006,2470.39,2021-10-05T11:44:33Z
2021-10-05T09:46:14Z,42.805,6.029,13.2990,4.60007,2470.39,2021-10-05T11:47:36Z
2021-10-05T09:49:17Z,42.805,6.029,13.2990,4.60009,2470.39,2021-10-05T11:50:39Z
2021-10-05T09:52:20Z,42.805,6.029,13.2992,4.60007,2470.404,2021-10-05T11:53:42Z
2021-10-05T09:55:23Z,42.805,6.029,13.2990,4.60007,2470.404,2021-10-05T11:56:46Z
2021-10-05T09:58:26Z,42.805,6.029,13.2994,4.60006,2470.366,2021-10-05T11:59:49Z
2021-10-05T10:01:29Z,42.805,6.029,13.2995,4.60006,2470.366,2021-10-05T12:02:52Z
2021-10-05T10:04:32Z,42.805,6.029,13.2991,4.60006,2470.413,2021-10-05T12:05:55Z
2021-10-05T10:07:35Z,42.805,6.029,13.2993,4.60007,2470.39,2021-10-05T12:08:58Z
2021-10-05T10:10:39Z,42.805,6.029,13.2993,4.60009,2470.39,2021-10-05T12:12:01Z
2021-10-05T10:13:42Z,42.805,6.029,13.2993,4.60006,2470.376,2021-10-05T12:15:04Z
2021-10-05T10:16:45Z,42.805,6.029,13.2991,4.60008,2470.39,2021-10-05T12:18:07Z
2021-10-05T10:19:48Z,42.805,6.029,13.2991,4.60006,2470.38,2021-10-05T12:21:11Z
2021-10-05T10:22:51Z,42.805,6.029,13.2991,4.60009,2470.357,2021-10-05T12:24:14Z
2021-10-05T10:25:54Z,42.805,6.029,13.2995,4.60007,2470.366,2021-10-05T12:27:17Z
2021-10-05T10:28:57Z,42.805,6.029,13.2990,4.60009,2470.39,2021-10-05T12:30:20Z
2021-10-05T10:32:00Z,42.805,6.029,13.2993,4.60009,2470.38,2021-10-05T12:33:23Z
2021-10-05T10:35:04Z,42.805,6.029,13.2995,4.60010,2470.343,2021-10-05T12:36:26Z
2021-10-05T10:38:07Z,42.805,6.029,13.2994,4.60008,2470.357,2021-10-05T12:39:29Z
2021-10-05T10:41:10Z,42.805,6.029,13.2991,4.60010,2470.343,2021-10-05T12:42:32Z
2021-10-05T10:44:13Z,42.805,6.029,13.2993,4.60006,2470.366,2021-10-05T12:45:36Z
2021-10-05T10:47:16Z,42.805,6.029,13.2991,4.60007,2470.366,2021-10-05T12:48:39Z
2021-10-05T10:50:19Z,42.805,6.029,13.2998,4.60007,2470.39,2021-10-05T12:51:42Z
2021-10-05T10:53:22Z,42.805,6.029,13.2993,4.60008,2470.334,2021-10-05T12:54:45Z
2021-10-05T10:56:25Z,42.805,6.029,13.2993,4.60006,2470.39,2021-10-05T12:57:48Z
2021-10-05T10:59:29Z,42.805,6.029,13.2993,4.60007,2470.343,2021-10-05T13:00:51Z
2021-10-05T11:02:32Z,42.805,6.029,13.2991,4.60007,2470.357,2021-10-05T13:03:54Z
2021-10-05T11:05:35Z,42.805,6.029,13.2991,4.60007,2470.343,2021-10-05T13:06:57Z
2021-10-05T11:08:38Z,42.805,6.029,13.2991,4.60009,2470.343,2021-10-05T13:10:01Z
2021-10-05T11:11:41Z,42.805,6.029,13.2996,4.60006,2470.343,2021-10-05T13:13:04Z
2021-10-05T11:14:44Z,42.805,6.029,13.2994,4.60007,2470.334,2021-10-05T13:16:07Z
2021-10-05T11:17:47Z,42.805,6.029,13.2991,4.60007,2470.343,2021-10-05T13:19:10Z
2021-10-05T11:20:50Z,42.805,6.029,13.2991,4.60007,2470.334,2021-10-05T13:22:13Z
2021-10-05T11:23:54Z,42.805,6.029,13.2992,4.60009,2470.32,2021-10-05T13:25:16Z
2021-10-05T11:26:57Z,42.805,6.029,13.2994,4.60009,2470.334,2021-10-05T13:28:19Z
2021-10-05T11:30:00Z,42.805,6.029,13.2994,4.60009,2470.343,2021-10-05T13:31:22Z
2021-10-05T11:33:03Z,42.805,6.029,13.2995,4.60008,2470.334,2021-10-05T13:34:26Z
2021-10-05T11:36:06Z,42.805,6.029,13.2994,4.60009,2470.357,2021-10-05T13:37:29Z
2021-10-05T11:39:09Z,42.805,6.029,13.2993,4.60009,2470.38,2021-10-05T13:40:32Z
2021-10-05T11:42:12Z,42.805,6.029,13.2992,4.60007,2470.334,2021-10-05T13:43:35Z
2021-10-05T11:45:15Z,42.805,6.029,13.2998,4.60008,2470.32,2021-10-05T13:46:38Z
2021-10-05T11:48:18Z,42.805,6.029,13.2991,4.60010,2470.32,2021-10-05T13:49:41Z
2021-10-05T11:51:22Z,42.805,6.029,13.2993,4.60007,2470.357,2021-10-05T13:52:44Z
2021-10-05T11:54:25Z,42.805,6.029,13.2992,4.60009,2470.32,2021-10-05T13:55:47Z
2021-10-05T11:57:28Z,42.805,6.029,13.2995,4.60009,2470.334,2021-10-05T13:58:51Z
2021-10-05T12:00:31Z,42.805,6.029,13.2991,4.60008,2470.31,2021-10-05T14:01:54Z
2021-10-05T12:03:34Z,42.805,6.029,13.2993,4.60009,2470.32,2021-10-05T14:04:57Z
2021-10-05T12:06:37Z,42.805,6.029,13.2993,4.60009,2470.31,2021-10-05T14:08:00Z
2021-10-05T12:09:40Z,42.805,6.029,13.2994,4.60007,2470.297,2021-10-05T14:11:03Z
2021-10-05T12:12:43Z,42.805,6.029,13.2996,4.60009,2470.297,2021-10-05T14:14:06Z
2021-10-05T12:15:47Z,42.805,6.029,13.2991,4.60008,2470.32,2021-10-05T14:17:09Z
2021-10-05T12:18:50Z,42.805,6.029,13.2991,4.60009,2470.334,2021-10-05T14:20:12Z
2021-10-05T12:21:53Z,42.805,6.029,13.2993,4.60008,2470.297,2021-10-05T14:23:15Z
2021-10-05T12:24:56Z,42.805,6.029,13.2993,4.60009,2470.334,2021-10-05T14:26:19Z
2021-10-05T12:27:59Z,42.805,6.029,13.2993,4.60009,2470.334,2021-10-05T14:29:22Z
2021-10-05T12:31:02Z,42.805,6.029,13.2996,4.60008,2470.297,2021-10-05T14:32:25Z
2021-10-05T12:34:05Z,42.805,6.029,13.2992,4.60008,2470.334,2021-10-05T14:35:28Z
2021-10-05T12:37:08Z,42.805,6.029,13.2996,4.60009,2470.297,2021-10-05T14:38:31Z
2021-10-05T12:40:12Z,42.805,6.029,13.2995,4.60009,2470.32,2021-10-05T14:41:34Z
2021-10-05T12:43:15Z,42.805,6.029,13.2991,4.60008,2470.357,2021-10-05T14:44:37Z
2021-10-05T12:46:18Z,42.805,6.029,13.2996,4.60008,2470.297,2021-10-05T14:47:40Z
2021-10-05T12:49:21Z,42.805,6.029,13.2997,4.60010,2470.31,2021-10-05T14:50:44Z
2021-10-05T12:52:24Z,42.805,6.029,13.2993,4.60008,2470.31,2021-10-05T14:53:47Z
2021-10-05T12:55:27Z,42.805,6.029,13.2997,4.60009,2470.334,2021-10-05T14:56:50Z
2021-10-05T12:58:30Z,42.805,6.029,13.2997,4.60009,2470.334,2021-10-05T14:59:53Z
2021-10-05T13:01:33Z,42.805,6.029,13.2993,4.60011,2470.31,2021-10-05T15:02:56Z
2021-10-05T13:04:37Z,42.805,6.029,13.2991,4.60008,2470.31,2021-10-05T15:05:59Z
2021-10-05T13:07:40Z,42.805,6.029,13.2993,4.60011,2470.31,2021-10-05T15:09:02Z
2021-10-05T13:10:43Z,42.805,6.029,13.2995,4.60009,2470.297,2021-10-05T15:12:05Z
2021-10-05T13:13:46Z,42.805,6.029,13.2993,4.60008,2470.334,2021-10-05T15:15:09Z
2021-10-05T13:16:49Z,42.805,6.029,13.2993,4.60013,2470.334,2021-10-05T15:18:12Z
2021-10-05T13:19:52Z,42.805,6.029,13.2998,4.60012,2470.297,2021-10-05T15:21:15Z
2021-10-05T13:22:55Z,42.805,6.029,13.2995,4.60010,2470.334,2021-10-05T15:24:18Z
2021-10-05T13:25:58Z,42.805,6.029,13.2993,4.60009,2470.31,2021-10-05T15:27:21Z
2021-10-05T13:29:02Z,42.805,6.029,13.2996,4.60009,2470.297,2021-10-05T15:30:24Z
2021-10-05T13:32:05Z,42.805,6.029,13.2996,4.60009,2470.334,2021-10-05T15:33:27Z
2021-10-05T13:35:08Z,42.805,6.029,13.2995,4.60009,2470.297,2021-10-05T15:36:30Z
2021-10-05T13:38:11Z,42.805,6.029,13.2994,4.60011,2470.32,2021-10-05T15:39:34Z
2021-10-05T13:41:14Z,42.805,6.029,13.2995,4.60011,2470.32,2021-10-05T15:42:37Z
2021-10-05T13:44:17Z,42.805,6.029,13.2998,4.60011,2470.297,2021-10-05T15:45:40Z
2021-10-05T13:47:20Z,42.805,6.029,13.2995,4.60014,2470.283,2021-10-05T15:48:43Z
2021-10-05T13:50:23Z,42.805,6.029,13.2990,4.60010,2470.334,2021-10-05T15:51:46Z
2021-10-05T13:53:27Z,42.805,6.029,13.2996,4.60015,2470.357,2021-10-05T15:54:49Z
2021-10-05T13:56:30Z,42.805,6.029,13.2994,4.60016,2470.32,2021-10-05T15:57:52Z
2021-10-05T13:59:33Z,42.805,6.029,13.2995,4.60009,2470.357,2021-10-05T16:00:55Z
2021-10-05T14:02:36Z,42.805,6.029,13.2998,4.60009,2470.32,2021-10-05T16:03:59Z
2021-10-05T14:05:39Z,42.805,6.029,13.2996,4.60009,2470.343,2021-10-05T16:07:02Z
2021-10-05T14:08:42Z,42.805,6.029,13.2995,4.60009,2470.366,2021-10-05T16:10:05Z
2021-10-05T14:11:45Z,42.805,6.029,13.2996,4.60016,2470.343,2021-10-05T16:13:08Z
2021-10-05T14:14:48Z,42.805,6.029,13.2999,4.60009,2470.343,2021-10-05T16:16:11Z
2021-10-05T14:17:51Z,42.805,6.029,13.2996,4.60011,2470.357,2021-10-05T16:19:14Z
2021-10-05T14:20:55Z,42.805,6.029,13.2995,4.60015,2470.38,2021-10-05T16:22:17Z
2021-10-05T14:23:58Z,42.805,6.029,13.2999,4.60011,2470.38,2021-10-05T16:25:20Z
2021-10-05T14:27:01Z,42.805,6.029,13.2993,4.60010,2470.343,2021-10-05T16:28:23Z
2021-10-05T14:30:04Z,42.805,6.029,13.3000,4.60015,2470.366,2021-10-05T16:31:27Z
2021-10-05T14:33:07Z,42.805,6.029,13.2995,4.60011,2470.38,2021-10-05T16:34:30Z
2021-10-05T14:36:10Z,42.805,6.029,13.2994,4.60013,2470.343,2021-10-05T16:37:33Z
2021-10-05T14:39:13Z,42.805,6.029,13.2997,4.60011,2470.343,2021-10-05T16:40:36Z
2021-10-05T14:42:16Z,42.805,6.029,13.2998,4.60010,2470.366,2021-10-05T16:43:39Z
2021-10-05T14:45:20Z,42.805,6.029,13.2995,4.60010,2470.366,2021-10-05T16:46:42Z
2021-10-05T14:48:23Z,42.805,6.029,13.2996,4.60011,2470.38,2021-10-05T16:49:45Z
2021-10-05T14:51:26Z,42.805,6.029,13.2995,4.60014,2470.39,2021-10-05T16:52:48Z
2021-10-05T14:54:29Z,42.805,6.029,13.3000,4.60011,2470.366,2021-10-05T16:55:52Z
2021-10-05T14:57:32Z,42.805,6.029,13.2994,4.60014,2470.366,2021-10-05T16:58:55Z
2021-10-05T15:00:35Z,42.805,6.029,13.2996,4.60013,2470.366,2021-10-05T17:01:58Z